Time,TemperatureF,DewpointF,PressureIn,WindDirection,WindDirectionDegrees,WindSpeedMPH,WindSpeedGustMPH,Humidity,HourlyPrecipIn,Conditions,Clouds,dailyrainin,SolarRadiationWatts/m^2,SoftwareType,DateUTC
2013-07-16 00:01:00,71.0,65.0,-100.00,NNE,23,2.0,5.0,81,0.00,,,0.00,0.000000,,2013-07-16 04:01:00,
2013-07-16 13:53:00,91.0,62.0,-100.00,SE,137,3.0,9.0,38,-99.99,,,0.00,784.000000,,2013-07-16 17:53:00,
2013-07-16 14:01:00,91.0,62.0,-100.00,SE,137,3.0,9.0,38,-99.99,,,0.00,784.000000,,2013-07-16 18:01:00,
2013-07-16 14:43:00,89.0,68.0,-100.00,NE,37,3.0,8.0,51,0.00,,,0.00,497.000000,,2013-07-16 18:43:00,
2013-07-16 14:53:00,89.0,68.0,-100.00,NE,37,3.0,8.0,51,0.00,,,0.00,497.000000,,2013-07-16 18:53:00,
2013-07-16 15:01:00,89.0,68.0,-100.00,NE,37,3.0,8.0,51,0.00,,,0.00,497.000000,,2013-07-16 19:01:00,
2013-07-16 15:43:00,92.0,64.0,-100.00,ENE,69,3.0,9.0,40,0.00,,,0.00,444.000000,,2013-07-16 19:43:00,
2013-07-16 15:52:00,92.0,64.0,-100.00,ENE,69,3.0,9.0,40,0.00,,,0.00,444.000000,,2013-07-16 19:52:00,
2013-07-16 16:03:00,92.0,64.0,-100.00,ENE,69,3.0,9.0,40,0.00,,,0.00,444.000000,,2013-07-16 20:03:00,
2013-07-16 16:32:00,88.0,69.0,-100.00,NNE,23,2.0,9.0,54,0.00,,,0.00,563.000000,,2013-07-16 20:32:00,
2013-07-16 16:43:00,88.0,69.0,-100.00,NNE,23,2.0,9.0,54,0.00,,,0.00,563.000000,,2013-07-16 20:43:00,
2013-07-16 16:52:00,88.0,69.0,-100.00,NNE,23,2.0,9.0,54,0.00,,,0.00,563.000000,,2013-07-16 20:52:00,
2013-07-16 17:01:00,88.0,69.0,-100.00,NNE,23,2.0,9.0,54,0.00,,,0.00,563.000000,,2013-07-16 21:01:00,
2013-07-16 17:43:00,91.0,67.0,-100.00,North,358,2.0,6.0,46,0.00,,,0.00,494.000000,,2013-07-16 21:43:00,
2013-07-16 17:52:00,91.0,67.0,-100.00,North,358,2.0,6.0,46,0.00,,,0.00,494.000000,,2013-07-16 21:52:00,
2013-07-16 18:01:00,91.0,67.0,-100.00,North,358,2.0,6.0,46,0.00,,,0.00,494.000000,,2013-07-16 22:01:00,
2013-07-16 18:43:00,87.0,71.0,-100.00,North,3,2.0,5.0,59,0.00,,,0.00,312.000000,,2013-07-16 22:43:00,
2013-07-16 18:52:00,87.0,71.0,-100.00,North,3,2.0,5.0,59,0.00,,,0.00,312.000000,,2013-07-16 22:52:00,
2013-07-16 19:02:00,87.0,71.0,-100.00,North,3,2.0,5.0,59,0.00,,,0.00,312.000000,,2013-07-16 23:02:00,
2013-07-16 19:32:00,83.0,72.0,-100.00,NNW,337,1.0,4.0,70,0.00,,,0.00,91.000000,,2013-07-16 23:32:00,
2013-07-16 19:43:00,83.0,72.0,-100.00,NNW,337,1.0,4.0,70,0.00,,,0.00,91.000000,,2013-07-16 23:43:00,
2013-07-16 19:52:00,83.0,72.0,-100.00,NNW,337,1.0,4.0,70,0.00,,,0.00,91.000000,,2013-07-16 23:52:00,
2013-07-16 20:01:00,83.0,72.0,-100.00,NNW,337,1.0,4.0,70,0.00,,,0.00,91.000000,,2013-07-17 00:01:00,
2013-07-16 20:33:00,79.0,72.0,-100.00,WNW,299,1.0,2.0,78,0.00,,,0.00,34.000000,,2013-07-17 00:33:00,
2013-07-16 20:42:00,79.0,72.0,-100.00,WNW,299,1.0,2.0,78,0.00,,,0.00,34.000000,,2013-07-17 00:42:00,
2013-07-16 20:52:00,79.0,72.0,-100.00,WNW,299,1.0,2.0,78,0.00,,,0.00,34.000000,,2013-07-17 00:52:00,
2013-07-16 21:01:00,79.0,72.0,-100.00,WNW,299,1.0,2.0,78,0.00,,,0.00,34.000000,,2013-07-17 01:01:00,
2013-07-16 21:32:00,74.0,69.0,-100.00,WNW,285,2.0,2.0,85,0.00,,,0.00,2.000000,,2013-07-17 01:32:00,
2013-07-16 21:43:00,74.0,69.0,-100.00,WNW,285,2.0,2.0,85,0.00,,,0.00,2.000000,,2013-07-17 01:43:00,
2013-07-16 21:53:00,74.0,69.0,-100.00,WNW,285,2.0,2.0,85,0.00,,,0.00,2.000000,,2013-07-17 01:53:00,
2013-07-16 22:01:00,74.0,69.0,-100.00,WNW,285,2.0,2.0,85,0.00,,,0.00,2.000000,,2013-07-17 02:01:00,
2013-07-16 22:43:00,71.0,67.0,-100.00,WSW,247,1.0,3.0,88,0.00,,,0.00,0.000000,,2013-07-17 02:43:00,
2013-07-16 22:53:00,71.0,67.0,-100.00,WSW,247,1.0,3.0,88,0.00,,,0.00,0.000000,,2013-07-17 02:53:00,
2013-07-16 23:01:00,71.0,67.0,-100.00,WSW,247,1.0,3.0,88,0.00,,,0.00,0.000000,,2013-07-17 03:01:00,
2013-07-16 23:43:00,69.0,67.0,-100.00,WNW,289,1.0,2.0,92,0.00,,,0.00,0.000000,,2013-07-17 03:43:00,
2013-07-16 23:53:00,69.0,67.0,-100.00,WNW,289,1.0,2.0,92,0.00,,,0.00,0.000000,,2013-07-17 03:53:00,